Regional Weather Roundup
Issued by NWS

Home | Current Version | Previous Version | Text Only | Print | Product List | Glossary On
Versions: 1 2 3 4 5 6 7 8 9 10 11 12 13 14 15 16 17 18 19 20 21 22 23 24 25 26 27 28 29 30 31 32 33 34 35 36 37 38 39 40 41 42 43 44 45 46 47 48 49 50
000
ASUS45 KABQ 181910
RWRNM
WEATHER ROUNDUP FOR NEW MEXICO
NATIONAL WEATHER SERVICE ALBUQUERQUE NM
1200 PM MST THU DEC 18 2014

NOTE: "FAIR" MEANS FEW OR NO CLOUDS BELOW 12,000 FEET AGL WITH NO
       SIGNIFICANT WEATHER OR OBSTRUCTIONS TO VISION.

      THIS PRODUCT IS RELEASED AS TWO VERSIONS.  ONE VERSION NEAR
      THE TOP OF THE HOUR CONTAINING PRELIMINARY DATA FROM ALBUQUERQUE
      AND OTHER STATIONS.  A FINAL VERSION WITH ADDITIONAL DATA IS
      ISSUED ABOUT 10 MINUTES AFTER THE HOUR.

NMZ501-503-504-510>518-182000-
NORTHWEST PLATEAU/NORTHCENTRAL MOUNTAINS

CITY           SKY/WX    TMP DP  RH WIND       PRES   REMARKS
FARMINGTON     PTSUNNY   38  33  82 W7        30.13F WCI  33
LOS ALAMOS     CLOUDY    32  28  85 E5        30.11F WCI  27
SANTA FE       PTSUNNY   38  27  64 N5        30.10F WCI  34
TAOS           PTSUNNY   30  25  80 N8        30.11F WCI  23
ANGEL FIRE     FAIR      31  21  66 W12       30.07F WCI  22

$$
NMZ402-403-502-505>509-182000-
WESTCENTRAL MOUNTAINS/SOUTHWEST MOUNTAINS

CITY           SKY/WX    TMP DP  RH WIND       PRES   REMARKS
GALLUP         CLOUDY    35  26  69 W5        30.13F WCI  31
GRANTS         CLOUDY    36  27  69 CALM      30.13F
SILVER CITY    LGT RAIN  43  36  75 W8        30.14F

$$
NMZ407-409-411-412-182000-
SOUTHERN DESERTS

CITY           SKY/WX    TMP DP  RH WIND       PRES   REMARKS
LORDSBURG      CLOUDY    45  41  87 SE9       30.11F
DEMING         CLOUDY    49  39  68 VRB5      30.12F
LAS CRUCES     CLOUDY    52  35  51 SW6       30.12F
HOLLOMAN AFB   PTSUNNY   53  34  48 VRB7      30.09F
ALAMOGORDO     PTSUNNY   54  32  43 SW7       30.11F
T OR C         PTSUNNY   49  28  44 S8        30.09F

$$
NMZ519>523-182000-
CENTRAL VALLEYS/CENTRAL HIGHLANDS

CITY           SKY/WX    TMP DP  RH WIND       PRES   REMARKS
ALBUQUERQUE    PTSUNNY   40  30  67 CALM      30.13F
MORIARTY ARPT  FAIR      43  24  46 N9        30.10F
CLINES CORNERS MOSUNNY   36  27  69 W18       30.06F WCI  26
BELEN          FAIR      42  31  64 N3        30.12F
SOCORRO        CLOUDY    48  29  48 CALM      30.11F

$$
NMZ524>526-539-540-182000-
SOUTHCENTRAL MOUNTAINS

CITY           SKY/WX    TMP DP  RH WIND       PRES   REMARKS
RUIDOSO        PTSUNNY   41  23  48 CALM      30.11F

$$
NMZ527>531-182000-
NORTHEAST HIGHLANDS/NORTHEAST PLAINS

CITY           SKY/WX    TMP DP  RH WIND       PRES   REMARKS
LAS VEGAS      MOSUNNY   42  20  41 S8G18     30.05F
RATON          SUNNY     42  20  41 SE5       30.02F
CLAYTON        SUNNY     46  32  58 CALM      30.04F

$$
NMZ532>537-182000-
EASTCENTRAL PLAINS

CITY           SKY/WX    TMP DP  RH WIND       PRES   REMARKS
TUCUMCARI      MOSUNNY   41  32  70 VRB3      30.07F
CANNON AFB     NOT AVBL
CLOVIS AIRPORT SUNNY     54  25  32 W15       30.05F

$$
NMZ028-029-538-182000-
SOUTHEAST PLAINS

CITY           SKY/WX    TMP DP  RH WIND       PRES   REMARKS
ROSWELL        MOSUNNY   53  31  42 CALM      30.08F
ARTESIA        MOSUNNY   55  32  41 VRB7      30.09F
CARLSBAD       MOSUNNY   60  35  39 VRB5      30.07F
HOBBS          SUNNY     57  28  33 CALM      30.10F


$$


USA.gov is the U.S. government's official web portal to all federal, state and local government web resources and services.